E25XKG-15 Weather Reports


time (UTC)temp
C
wind
direction
speed
KPH
gust
KPH
rain 1hr
cm
rain 24hr
cm
rain mn
cm
humidity
%
barometer
mb
20260505000654 32 0 0.0 0.0 0.00 0.00 0.00 48 1006.8
20260505000153 32 0 0.0 0.0 0.00 0.00 0.00 47 1006.9
20260504235652 32 0 0.0 0.0 0.00 0.00 0.00 47 1006.8
20260504235151 32 0 0.0 0.0 0.00 0.00 0.00 47 1006.7
20260504234650 32 0 0.0 0.0 0.00 0.00 0.00 47 1006.8
20260504234149 32 0 0.0 0.0 0.00 0.00 0.00 48 1006.7
20260504233648 32 0 0.0 0.0 0.00 0.00 0.00 48 1006.8
20260504233147 32 0 0.0 0.0 0.00 0.00 0.00 48 1006.7
20260504232646 32 0 0.0 0.0 0.00 0.00 0.00 49 1006.7
20260504232145 32 0 0.0 0.0 0.00 0.00 0.00 49 1006.6
20260504231644 32 0 0.0 0.0 0.00 0.00 0.00 49 1006.5
20260504231143 32 0 0.0 0.0 0.00 0.00 0.00 50 1006.4
20260504230642 32 0 0.0 0.0 0.00 0.00 0.00 49 1006.4
20260504230141 32 0 0.0 0.0 0.00 0.00 0.00 49 1006.3
20260504225640 32 0 0.0 0.0 0.00 0.00 0.00 49 1006.3
20260504225139 32 0 0.0 0.0 0.00 0.00 0.00 49 1006.4
20260504224638 32 0 0.0 0.0 0.00 0.00 0.00 48 1006.3
20260504224137 32 0 0.0 0.0 0.00 0.00 0.00 48 1006.1
20260504223636 32 0 0.0 0.0 0.00 0.00 0.00 48 1006.0
20260504223135 32 0 0.0 0.0 0.00 0.00 0.00 47 1005.9
20260504222634 32 0 0.0 0.0 0.00 0.00 0.00 47 1005.8
20260504222133 32 0 0.0 0.0 0.00 0.00 0.00 47 1005.8
20260504221632 32 0 0.0 0.0 0.00 0.00 0.00 47 1005.9
20260504221131 32 0 0.0 0.0 0.00 0.00 0.00 48 1006.1
20260504220630 32 0 0.0 0.0 0.00 0.00 0.00 47 1006.1
20260504220129 32 0 0.0 0.0 0.00 0.00 0.00 48 1006.0
20260504215628 32 0 0.0 0.0 0.00 0.00 0.00 49 1005.9
20260504215127 32 0 0.0 0.0 0.00 0.00 0.00 49 1005.8
20260504214626 32 0 0.0 0.0 0.00 0.00 0.00 50 1005.6
20260504214125 32 0 0.0 0.0 0.00 0.00 0.00 51 1005.6
20260504213624 32 0 0.0 0.0 0.00 0.00 0.00 52 1005.6
20260504213123 32 0 0.0 0.0 0.00 0.00 0.00 53 1005.4
20260504212622 32 0 0.0 0.0 0.00 0.00 0.00 54 1005.4
20260504212121 32 0 0.0 0.0 0.00 0.00 0.00 54 1005.4
20260504211620 32 0 0.0 0.0 0.00 0.00 0.00 56 1005.5
20260504211034 32 0 0.0 0.0 0.00 0.00 0.00 57 1005.1
20260504210636 32 0 0.0 0.0 0.00 0.00 0.00 57 1005.2
20260504210532 32 0 0.0 0.0 0.00 0.00 0.00 57 1005.2
20260504210135 32 0 0.0 0.0 0.00 0.00 0.00 55 1005.1
20260504210030 32 0 0.0 0.0 0.00 0.00 0.00 55 1005.1
20260504205634 32 0 0.0 0.0 0.00 0.00 0.00 56 1005.0
20260504205529 32 0 0.0 0.0 0.00 0.00 0.00 57 1005.0
20260504205133 32 0 0.0 0.0 0.00 0.00 0.00 58 1004.9
20260504205028 32 0 0.0 0.0 0.00 0.00 0.00 57 1004.9
20260504204632 32 0 0.0 0.0 0.00 0.00 0.00 55 1004.9
20260504204527 32 0 0.0 0.0 0.00 0.00 0.00 54 1004.9
20260504204131 32 0 0.0 0.0 0.00 0.00 0.00 56 1004.8
20260504204025 32 0 0.0 0.0 0.00 0.00 0.00 56 1004.7
20260504203629 32 0 0.0 0.0 0.00 0.00 0.00 57 1004.4
20260504203524 32 0 0.0 0.0 0.00 0.00 0.00 57 1004.4
20260504203128 32 0 0.0 0.0 0.00 0.00 0.00 56 1004.4
20260504203023 32 0 0.0 0.0 0.00 0.00 0.00 57 1004.5
20260504202626 32 0 0.0 0.0 0.00 0.00 0.00 55 1004.6
20260504202522 32 0 0.0 0.0 0.00 0.00 0.00 56 1004.6
20260504202125 32 0 0.0 0.0 0.00 0.00 0.00 57 1004.7
20260504202021 32 0 0.0 0.0 0.00 0.00 0.00 57 1004.7
20260504201624 32 0 0.0 0.0 0.00 0.00 0.00 57 1004.9
20260504201521 32 0 0.0 0.0 0.00 0.00 0.00 57 1004.9
20260504201122 25 0 0.0 0.0 0.00 0.00 0.00 98 734.8
20260504200843 32 0 0.0 0.0 0.00 0.00 0.00 55 1005.2
20260504200342 32 0 0.0 0.0 0.00 0.00 0.00 55 1005.1
20260504195841 32 0 0.0 0.0 0.00 0.00 0.00 53 1005.0
20260504195340 32 0 0.0 0.0 0.00 0.00 0.00 53 1004.8
20260504194839 32 0 0.0 0.0 0.00 0.00 0.00 54 1005.0
20260504194338 32 0 0.0 0.0 0.00 0.00 0.00 53 1004.9
20260504193837 33 0 0.0 0.0 0.00 0.00 0.00 51 1004.8
20260504193337 32 0 0.0 0.0 0.00 0.00 0.00 53 1004.9
20260504192835 33 0 0.0 0.0 0.00 0.00 0.00 53 1004.8
20260504192334 32 0 0.0 0.0 0.00 0.00 0.00 56 1004.8
20260504191833 32 0 0.0 0.0 0.00 0.00 0.00 55 1004.8
20260504191332 33 0 0.0 0.0 0.00 0.00 0.00 54 1004.8
20260504190831 32 0 0.0 0.0 0.00 0.00 0.00 55 1004.7
20260504190330 32 0 0.0 0.0 0.00 0.00 0.00 56 1004.7
20260504185829 32 0 0.0 0.0 0.00 0.00 0.00 55 1004.7
20260504185328 33 0 0.0 0.0 0.00 0.00 0.00 55 1004.6
20260504184827 33 0 0.0 0.0 0.00 0.00 0.00 54 1004.6
20260504184325 33 0 0.0 0.0 0.00 0.00 0.00 55 1004.6
20260504183825 33 0 0.0 0.0 0.00 0.00 0.00 55 1004.7
20260504183324 33 0 0.0 0.0 0.00 0.00 0.00 55 1004.7
20260504182823 33 0 0.0 0.0 0.00 0.00 0.00 54 1004.8
20260504182322 33 0 0.0 0.0 0.00 0.00 0.00 54 1004.8
20260504181821 33 0 0.0 0.0 0.00 0.00 0.00 55 1004.9
20260504181320 33 0 0.0 0.0 0.00 0.00 0.00 55 1005.0
20260504180818 33 0 0.0 0.0 0.00 0.00 0.00 54 1005.1
20260504180317 33 0 0.0 0.0 0.00 0.00 0.00 54 1005.2
20260504175816 33 0 0.0 0.0 0.00 0.00 0.00 53 1005.2
20260504175315 33 0 0.0 0.0 0.00 0.00 0.00 54 1005.1
20260504174814 33 0 0.0 0.0 0.00 0.00 0.00 54 1005.2
20260504174313 33 0 0.0 0.0 0.00 0.00 0.00 54 1005.1
20260504173812 33 0 0.0 0.0 0.00 0.00 0.00 54 1005.3
20260504173311 33 0 0.0 0.0 0.00 0.00 0.00 54 1005.3
20260504172810 33 0 0.0 0.0 0.00 0.00 0.00 54 1004.9
20260504172309 33 0 0.0 0.0 0.00 0.00 0.00 54 1005.1
20260504171808 33 0 0.0 0.0 0.00 0.00 0.00 52 1005.2
20260504171307 33 0 0.0 0.0 0.00 0.00 0.00 54 1005.3
20260504170806 33 0 0.0 0.0 0.00 0.00 0.00 53 1005.5
20260504170305 33 0 0.0 0.0 0.00 0.00 0.00 54 1005.6
20260504160254 33 0 0.0 0.0 0.00 0.00 0.00 53 1005.4
20260504150742 33 0 0.0 0.0 0.00 0.00 0.00 51 1004.9
20260504150241 33 0 0.0 0.0 0.00 0.00 0.00 51 1004.8
20260504141225 33 0 0.0 0.0 0.00 0.00 0.00 49 1003.4
20260504140724 33 0 0.0 0.0 0.00 0.00 0.00 49 1003.1
20260504140223 33 0 0.0 0.0 0.00 0.00 0.00 48 1003.3
20260504130712 34 0 0.0 0.0 0.00 0.00 0.00 41 1002.9
20260504130211 34 0 0.0 0.0 0.00 0.00 0.00 42 1002.8
20260504120200 34 0 0.0 0.0 0.00 0.00 0.00 42 1001.7
20260504110649 35 0 0.0 0.0 0.00 0.00 0.00 42 1001.0
20260504110148 35 0 0.0 0.0 0.00 0.00 0.00 42 1001.2
20260504100135 35 0 0.0 0.0 0.00 0.00 0.00 45 1000.3
20260504090123 35 0 0.0 0.0 0.00 0.00 0.00 48 1000.2
20260504081614 35 0 0.0 0.0 0.00 0.00 0.00 48 1000.7
20260504081113 35 0 0.0 0.0 0.00 0.00 0.00 49 1000.8
20260504080612 35 0 0.0 0.0 0.00 0.00 0.00 49 1000.8
20260504080111 35 0 0.0 0.0 0.00 0.00 0.00 48 1000.9
20260504050537 34 0 0.0 0.0 0.00 0.00 0.00 48 1004.6
20260504045535 34 0 0.0 0.0 0.00 0.00 0.00 48 1004.7
20260504045034 34 0 0.0 0.0 0.00 0.00 0.00 48 1004.8
20260504044533 34 0 0.0 0.0 0.00 0.00 0.00 48 1004.9
20260504044032 34 0 0.0 0.0 0.00 0.00 0.00 47 1004.9
20260504043531 34 0 0.0 0.0 0.00 0.00 0.00 48 1004.9
20260504043030 34 0 0.0 0.0 0.00 0.00 0.00 48 1005.0
20260504042529 34 0 0.0 0.0 0.00 0.00 0.00 48 1005.0
20260504042028 33 0 0.0 0.0 0.00 0.00 0.00 47 1004.7
20260504041527 34 0 0.0 0.0 0.00 0.00 0.00 47 1005.0
20260504041026 33 0 0.0 0.0 0.00 0.00 0.00 47 1005.1
20260504040525 33 0 0.0 0.0 0.00 0.00 0.00 47 1005.2
20260504040024 33 0 0.0 0.0 0.00 0.00 0.00 47 1005.1
20260504035523 33 0 0.0 0.0 0.00 0.00 0.00 47 1005.3
20260504035022 33 0 0.0 0.0 0.00 0.00 0.00 47 1005.2
20260504034521 33 0 0.0 0.0 0.00 0.00 0.00 47 1005.3
20260504034020 33 0 0.0 0.0 0.00 0.00 0.00 47 1005.3
20260504033519 33 0 0.0 0.0 0.00 0.00 0.00 47 1005.3
20260504033018 33 0 0.0 0.0 0.00 0.00 0.00 46 1005.3
20260504032517 33 0 0.0 0.0 0.00 0.00 0.00 47 1005.4
20260504032016 33 0 0.0 0.0 0.00 0.00 0.00 46 1005.4
20260504031515 33 0 0.0 0.0 0.00 0.00 0.00 46 1005.0
20260504031015 33 0 0.0 0.0 0.00 0.00 0.00 46 1005.4
20260504030513 33 0 0.0 0.0 0.00 0.00 0.00 46 1005.4
20260504030012 33 0 0.0 0.0 0.00 0.00 0.00 47 1005.4
20260504025511 33 0 0.0 0.0 0.00 0.00 0.00 46 1005.4
20260504025010 33 0 0.0 0.0 0.00 0.00 0.00 46 1005.5
20260504024510 33 0 0.0 0.0 0.00 0.00 0.00 46 1005.3
20260504024008 33 0 0.0 0.0 0.00 0.00 0.00 46 1005.5
20260504023507 33 0 0.0 0.0 0.00 0.00 0.00 46 1005.5
20260504023007 33 0 0.0 0.0 0.00 0.00 0.00 47 1005.6
20260504022506 33 0 0.0 0.0 0.00 0.00 0.00 46 1005.4
20260504022005 33 0 0.0 0.0 0.00 0.00 0.00 46 1005.2
20260504021504 33 0 0.0 0.0 0.00 0.00 0.00 46 1005.5
20260504021003 33 0 0.0 0.0 0.00 0.00 0.00 46 1005.5
20260504020502 33 0 0.0 0.0 0.00 0.00 0.00 46 1005.4
20260504020001 33 0 0.0 0.0 0.00 0.00 0.00 46 1005.5
20260504015500 33 0 0.0 0.0 0.00 0.00 0.00 46 1005.5
20260504014959 33 0 0.0 0.0 0.00 0.00 0.00 46 1005.6
20260504014458 33 0 0.0 0.0 0.00 0.00 0.00 46 1005.5
20260504013957 33 0 0.0 0.0 0.00 0.00 0.00 46 1005.4
20260504013456 33 0 0.0 0.0 0.00 0.00 0.00 46 1005.1
20260504012955 33 0 0.0 0.0 0.00 0.00 0.00 46 1005.3
20260504012454 33 0 0.0 0.0 0.00 0.00 0.00 46 1005.3
20260504011953 33 0 0.0 0.0 0.00 0.00 0.00 46 1005.3
20260504011452 33 0 0.0 0.0 0.00 0.00 0.00 46 1005.2
20260504010951 33 0 0.0 0.0 0.00 0.00 0.00 47 1005.1
20260504010450 33 0 0.0 0.0 0.00 0.00 0.00 45 1005.0
20260504005949 33 0 0.0 0.0 0.00 0.00 0.00 46 1004.7
20260504005448 33 0 0.0 0.0 0.00 0.00 0.00 46 1005.0
20260504004947 33 0 0.0 0.0 0.00 0.00 0.00 45 1005.0
20260504004446 33 0 0.0 0.0 0.00 0.00 0.00 46 1004.9
20260504003945 33 0 0.0 0.0 0.00 0.00 0.00 46 1004.9
20260504003444 33 0 0.0 0.0 0.00 0.00 0.00 46 1004.9
20260504002943 33 0 0.0 0.0 0.00 0.00 0.00 46 1004.8
20260504002442 33 0 0.0 0.0 0.00 0.00 0.00 46 1004.7
20260504001941 33 0 0.0 0.0 0.00 0.00 0.00 46 1004.7
20260504001440 33 0 0.0 0.0 0.00 0.00 0.00 45 1004.6
20260504000939 33 0 0.0 0.0 0.00 0.00 0.00 46 1004.5